Regional Weather Roundup
Issued by NWS

Home | Current Version | Previous Version | Graphics & Text | Print | Product List | Glossary On
Versions: 1 2 3 4 5 6 7 8 9 10 11 12 13 14 15 16 17 18 19 20 21 22 23 24 25 26 27 28 29 30 31 32 33 34 35 36 37 38 39 40 41 42 43 44 45 46 47 48 49 50
000
ASUS43 KTOP 282108
RWRKS

WEATHER ROUNDUP FOR KANSAS
NATIONAL WEATHER SERVICE GOODLAND KS
300 PM CST SAT FEB 28 2015

NOTE:  "FAIR" INDICATES FEW OR NO CLOUDS BELOW 12,000 FEET WITH NO
SIGNIFICANT WEATHER AND/OR OBSTRUCTIONS TO VISIBILITY.

KSZ001>006-013>018-027>032-041>047-282200-
NORTHWEST KANSAS

CITY           SKY/WX    TMP DP  RH WIND       PRES   REMARKS
GOODLAND       LGT SNOW  18  12  77 SE6       30.07F
HAYS           CLOUDY    19   7  58 SE9       30.25F
HILL CITY      CLOUDY    20  13  74 SE7       30.22F
RUSSELL        CLOUDY    20  14  77 S10       30.26F WCI   9
$$

KSZ061>065-074>080-084>089-282200-
SOUTHWEST KANSAS

CITY           SKY/WX    TMP DP  RH WIND       PRES   REMARKS
DODGE CITY     CLOUDY    20  14  77 S14       30.17F WCI   7
ELKHART          N/A     22  14  71 S13         N/A  WCI  10
GARDEN CITY    CLOUDY    20  15  81 S13       30.14R WCI   7
GREAT BEND     CLOUDY    19  12  73 SE10      30.27F WCI   8
LIBERAL        CLOUDY    23  16  74 S13       30.14F WCI  11
PRATT          CLOUDY    21  14  73 SE9       30.26F
$$

KSZ066>073-081>083-090>101-282200-
SOUTHEAST KANSAS

CITY           SKY/WX    TMP DP  RH WIND       PRES   REMARKS
CHANUTE        SNOW      23  20  88 E6        30.39S VSB 1/2
COFFEYVILLE    LGT SNOW  25  22  88 NE7       30.39S VSB 1
HUTCHINSON     CLOUDY    21  14  74 SE10      30.30F WCI  10
MEDICINE LODGE   N/A     21  16  81 SE7       30.28F
NEWTON         CLOUDY    21  12  68 SE7       30.33F
PARSONS        LGT SNOW  25  21  85 VRB3      30.39F VSB 3/4
WICHITA INTL   CLOUDY    22  16  78 S6        30.33F
WICHITA JABRA  CLOUDY    21  16  81 S6        30.33F
WICHITA MCCONL PTSUNNY   22  17  80 S7        30.33S
WINFIELD       LGT SNOW  25  21  85 NE5       30.35F FOG
$$

KSZ007>012-019>026-033>040-048>060-102>105-282200-
NORTHEAST KANSAS

CITY           SKY/WX    TMP DP  RH WIND       PRES   REMARKS
CONCORDIA      LGT SNOW  20  16  84 S9        30.32F FOG
EMPORIA        CLOUDY    22  17  81 SE3       30.35F
LAWRENCE       CLOUDY    23  18  81 SE7       30.41F
MANHATTAN      LGT SNOW  24  17  74 S6        30.37F
MARYSVILLE     LGT SNOW  23  18  80 S7        30.35F
OLATHE IND     LGT SNOW  22  17  81 SE7       30.40F
OLATHE EXE     LGT SNOW  22  18  85 SE8       30.38F FOG
SALINA         FLURRIES  22  16  78 S6        30.35F
TOPEKA BILLARD LGT SNOW  23  18  81 SE7       30.41S
TOPEKA FORBES  LGT SNOW  24  18  77 SE7       30.38F
$$



USA.gov is the U.S. government's official web portal to all federal, state and local government web resources and services.